timestamp,wind_dir_avg,wind_spd_avg,wind_spd_max_dir,wind_spd_gust,battery_voltage,lat,long
2020-11-02 00:04:01+00:00,227.0,8.67,221.0,10.86,12.57,47.59359,-54.27349
2020-11-02 00:14:01+00:00,232.0,8.76,232.0,11.39,12.57,47.59359,-54.27349
2020-11-02 00:24:01+00:00,231.0,9.48,233.0,11.39,12.57,47.59359,-54.27349
2020-11-02 00:34:01+00:00,230.0,8.48,230.0,10.0,12.57,47.59359,-54.27349
2020-11-02 00:44:01+00:00,235.0,8.74,236.0,9.91,12.57,47.59359,-54.27349
2020-11-02 00:54:01+00:00,233.0,9.57,231.0,12.29,12.57,47.59359,-54.27349
2020-11-02 01:04:01+00:00,225.0,9.92,227.0,12.6,12.57,47.59359,-54.27349
2020-11-02 01:14:01+00:00,227.0,11.88,223.0,14.19,12.57,47.59359,-54.27349
2020-11-02 01:24:01+00:00,223.0,12.2,222.0,14.15,12.57,47.59359,-54.27349
2020-11-02 01:34:01+00:00,225.0,11.63,224.0,14.66,12.57,47.59359,-54.27349
2020-11-02 01:44:01+00:00,230.0,11.91,228.0,13.55,12.57,47.59359,-54.27349
2020-11-02 01:54:01+00:00,220.0,10.89,219.0,13.26,12.57,47.59359,-54.27349
2020-11-02 02:04:01+00:00,229.0,11.28,223.0,13.11,12.57,47.59359,-54.27349
2020-11-02 02:14:01+00:00,225.0,12.36,225.0,14.56,12.49,47.59359,-54.27349
2020-11-02 02:24:01+00:00,229.0,12.73,233.0,14.91,12.49,47.59359,-54.27349
2020-11-02 02:34:01+00:00,223.0,12.28,221.0,13.93,12.49,47.59359,-54.27349
2020-11-02 02:44:01+00:00,225.0,14.82,225.0,16.88,12.49,47.59359,-54.27349
2020-11-02 02:54:01+00:00,215.0,13.8,217.0,16.43,12.49,47.59359,-54.27349
2020-11-02 03:04:01+00:00,217.0,12.9,216.0,14.38,12.49,47.59359,-54.27349
2020-11-02 03:14:01+00:00,216.0,12.92,214.0,15.22,12.49,47.59359,-54.27349
2020-11-02 03:24:01+00:00,214.0,11.79,213.0,15.08,12.49,47.59359,-54.27349
2020-11-02 03:34:01+00:00,214.0,12.71,214.0,13.87,12.49,47.59359,-54.27349
2020-11-02 03:44:01+00:00,211.0,12.61,206.0,16.0,12.49,47.59359,-54.27349
2020-11-02 03:54:01+00:00,201.0,11.87,206.0,12.92,12.49,47.59359,-54.27349
2020-11-02 04:04:01+00:00,206.0,11.83,203.0,13.63,12.49,47.59359,-54.27349
2020-11-02 04:14:01+00:00,212.0,12.01,216.0,13.38,12.49,47.59359,-54.27349
2020-11-02 04:24:01+00:00,206.0,10.39,206.0,11.97,12.49,47.59359,-54.27349
2020-11-02 04:34:01+00:00,210.0,11.14,211.0,13.11,12.49,47.59359,-54.27349
2020-11-02 04:44:01+00:00,205.0,8.9,205.0,11.2,12.49,47.59359,-54.27349
2020-11-02 04:54:01+00:00,211.0,10.23,209.0,12.52,12.49,47.59359,-54.27349
2020-11-02 05:04:01+00:00,201.0,9.94,198.0,11.0,12.49,47.59359,-54.27349
2020-11-02 05:14:01+00:00,205.0,10.43,210.0,12.21,12.41,47.59359,-54.27349
2020-11-02 05:24:01+00:00,207.0,11.66,211.0,14.4,12.41,47.59359,-54.27349
2020-11-02 05:34:01+00:00,202.0,10.6,198.0,12.2,12.41,47.59359,-54.27349
2020-11-02 05:44:01+00:00,197.0,12.42,198.0,14.02,12.41,47.59359,-54.27349
2020-11-02 05:54:01+00:00,193.0,12.49,203.0,14.8,12.41,47.59359,-54.27349
2020-11-02 06:04:01+00:00,191.0,12.8,193.0,14.36,12.41,47.59359,-54.27349
2020-11-02 06:14:01+00:00,186.0,13.07,186.0,14.87,12.41,47.59359,-54.27349
2020-11-02 06:24:01+00:00,191.0,12.94,187.0,14.81,12.41,47.59359,-54.27349
2020-11-02 06:34:01+00:00,191.0,12.52,198.0,14.45,12.41,47.59359,-54.27349
2020-11-02 06:44:01+00:00,189.0,12.68,190.0,15.75,12.41,47.59359,-54.27349
2020-11-02 06:54:01+00:00,190.0,13.83,190.0,15.47,12.41,47.59359,-54.27349
2020-11-02 07:04:01+00:00,190.0,13.58,196.0,15.62,12.41,47.59359,-54.27349
2020-11-02 07:14:01+00:00,192.0,14.16,192.0,15.99,12.41,47.59359,-54.27349
2020-11-02 07:24:01+00:00,197.0,14.9,196.0,18.47,12.41,47.59359,-54.27349
2020-11-02 07:34:01+00:00,195.0,12.92,191.0,14.95,12.41,47.59359,-54.27349
2020-11-02 07:44:01+00:00,197.0,13.62,198.0,15.21,12.41,47.59359,-54.27349
2020-11-02 07:54:01+00:00,197.0,13.94,198.0,16.02,12.41,47.59359,-54.27349
2020-11-02 08:04:01+00:00,195.0,12.84,196.0,15.14,12.41,47.59359,-54.27349
2020-11-02 08:14:01+00:00,193.0,12.97,201.0,15.82,12.41,47.59359,-54.27349
2020-11-02 08:24:01+00:00,190.0,12.15,189.0,14.7,12.41,47.59359,-54.27349
2020-11-02 08:34:01+00:00,188.0,13.41,184.0,15.84,12.41,47.59359,-54.27349
2020-11-02 08:44:01+00:00,192.0,13.88,194.0,16.45,12.41,47.59359,-54.27349
2020-11-02 08:54:01+00:00,191.0,12.22,189.0,15.35,12.41,47.59359,-54.27349
2020-11-02 09:04:01+00:00,187.0,14.32,181.0,16.72,12.41,47.59359,-54.27349
2020-11-02 09:14:01+00:00,188.0,13.06,182.0,15.29,12.33,47.59359,-54.27349
2020-11-02 09:24:01+00:00,183.0,15.06,181.0,16.86,12.33,47.59359,-54.27349
2020-11-02 09:34:01+00:00,185.0,13.12,189.0,14.89,12.33,47.59359,-54.27349
2020-11-02 09:44:01+00:00,182.0,12.89,185.0,14.63,12.33,47.59359,-54.27349
2020-11-02 09:54:01+00:00,181.0,12.92,179.0,15.22,12.33,47.59359,-54.27349
2020-11-02 10:04:01+00:00,180.0,14.05,181.0,16.1,12.33,47.59359,-54.27349
2020-11-02 10:14:01+00:00,178.0,12.06,178.0,14.51,12.33,47.59359,-54.27349
2020-11-02 10:24:01+00:00,179.0,11.23,179.0,13.02,12.33,47.59359,-54.27349
2020-11-02 10:34:01+00:00,178.0,11.85,174.0,14.12,12.33,47.59359,-54.27349
2020-11-02 10:44:01+00:00,180.0,11.8,172.0,13.7,12.33,47.59359,-54.27349
2020-11-02 10:54:01+00:00,182.0,10.94,180.0,13.35,12.33,47.59359,-54.27349
2020-11-02 11:04:01+00:00,182.0,12.75,186.0,16.64,12.33,47.59359,-54.27349
2020-11-02 11:14:01+00:00,180.0,11.99,180.0,13.58,12.41,47.59359,-54.27349
2020-11-02 11:24:01+00:00,177.0,13.26,180.0,16.95,12.41,47.59359,-54.27349
2020-11-02 11:34:01+00:00,170.0,15.21,168.0,17.9,12.41,47.59359,-54.27349
2020-11-02 11:44:01+00:00,170.0,14.56,174.0,16.34,12.41,47.59359,-54.27349
2020-11-02 11:54:01+00:00,168.0,14.32,171.0,17.44,12.41,47.59359,-54.27349
2020-11-02 12:04:01+00:00,165.0,14.11,166.0,16.2,12.41,47.59359,-54.27349
2020-11-02 12:14:01+00:00,166.0,11.47,171.0,14.36,12.89,47.59359,-54.27349
2020-11-02 12:24:01+00:00,171.0,13.79,173.0,16.89,12.89,47.59359,-54.27349
2020-11-02 12:34:01+00:00,178.0,12.25,177.0,14.35,12.89,47.59359,-54.27349
2020-11-02 12:44:01+00:00,176.0,12.26,180.0,16.03,12.89,47.59359,-54.27349
2020-11-02 12:54:01+00:00,176.0,16.31,177.0,19.69,12.89,47.59359,-54.27349
2020-11-02 13:04:01+00:00,177.0,12.9,172.0,14.77,12.89,47.59359,-54.27349
2020-11-02 13:14:01+00:00,176.0,13.73,176.0,16.66,13.13,47.59359,-54.27349
2020-11-02 13:24:01+00:00,177.0,13.3,174.0,15.81,13.13,47.59359,-54.27349
2020-11-02 13:34:01+00:00,178.0,14.71,181.0,17.4,13.13,47.59359,-54.27349
2020-11-02 13:44:01+00:00,174.0,15.28,170.0,17.08,13.13,47.59359,-54.27349
2020-11-02 13:54:01+00:00,173.0,14.82,176.0,17.0,13.13,47.59359,-54.27349
2020-11-02 14:04:01+00:00,171.0,15.04,175.0,19.31,13.13,47.59359,-54.27349
2020-11-02 14:14:01+00:00,169.0,14.78,180.0,17.65,13.37,47.59359,-54.27349
2020-11-02 14:24:01+00:00,175.0,16.5,177.0,18.79,13.37,47.59359,-54.27349
2020-11-02 14:34:01+00:00,174.0,17.62,174.0,20.87,13.37,47.59359,-54.27349
2020-11-02 14:44:01+00:00,171.0,14.1,164.0,17.93,13.37,47.59359,-54.27349
2020-11-02 14:54:01+00:00,175.0,15.84,169.0,17.88,13.37,47.59359,-54.27349
2020-11-02 15:04:01+00:00,173.0,18.28,177.0,21.85,13.37,47.59359,-54.27349
2020-11-02 15:14:01+00:00,177.0,14.97,179.0,16.85,13.13,47.59359,-54.27349
2020-11-02 15:24:01+00:00,175.0,17.46,169.0,21.21,13.13,47.59359,-54.27349
2020-11-02 15:34:01+00:00,177.0,18.08,178.0,22.17,13.13,47.59359,-54.27349
2020-11-02 15:44:01+00:00,176.0,15.58,179.0,19.46,13.13,47.59359,-54.27349
2020-11-02 15:54:01+00:00,176.0,19.39,174.0,22.52,13.13,47.59359,-54.27349
2020-11-02 16:04:01+00:00,178.0,17.57,167.0,20.83,13.13,47.59359,-54.27349
2020-11-02 16:14:01+00:00,176.0,19.61,173.0,24.17,13.13,47.59359,-54.27349
2020-11-02 16:24:01+00:00,174.0,17.72,177.0,21.08,13.13,47.59359,-54.27349
2020-11-02 16:34:01+00:00,179.0,17.17,181.0,20.11,13.13,47.59359,-54.27349
2020-11-02 16:44:01+00:00,173.0,16.46,168.0,18.67,13.13,47.59359,-54.27349
2020-11-02 16:54:01+00:00,174.0,17.01,181.0,20.02,13.13,47.59359,-54.27349
2020-11-02 17:04:01+00:00,173.0,17.97,177.0,22.91,13.13,47.59359,-54.27349
2020-11-02 17:14:01+00:00,178.0,17.82,188.0,22.41,13.13,47.59359,-54.27349
2020-11-02 17:24:01+00:00,175.0,19.08,170.0,22.8,13.13,47.59359,-54.27349
2020-11-02 17:34:01+00:00,174.0,19.23,175.0,23.45,13.13,47.59359,-54.27349
2020-11-02 17:44:01+00:00,173.0,19.33,172.0,22.7,13.13,47.59359,-54.27349
2020-11-02 17:54:01+00:00,174.0,19.57,172.0,23.82,13.13,47.59359,-54.27349
2020-11-02 18:04:01+00:00,170.0,21.51,167.0,25.7,13.13,47.59359,-54.27349
2020-11-02 18:14:01+00:00,173.0,21.8,175.0,25.24,13.05,47.59359,-54.27349
2020-11-02 18:24:01+00:00,170.0,20.87,164.0,24.05,13.05,47.59359,-54.27349
2020-11-02 18:34:01+00:00,170.0,18.62,176.0,21.52,13.05,47.59359,-54.27349
2020-11-02 18:44:01+00:00,169.0,19.08,161.0,22.93,13.05,47.59359,-54.27349
2020-11-02 18:54:01+00:00,169.0,18.99,171.0,24.35,13.05,47.59359,-54.27349
2020-11-02 19:04:01+00:00,173.0,18.1,179.0,24.54,13.05,47.59359,-54.27349
2020-11-02 19:14:01+00:00,174.0,20.33,170.0,25.89,12.73,47.59359,-54.27349
2020-11-02 19:24:01+00:00,178.0,19.85,180.0,23.59,12.73,47.59359,-54.27349
2020-11-02 19:34:01+00:00,173.0,19.96,177.0,25.01,12.73,47.59359,-54.27349
2020-11-02 19:44:01+00:00,173.0,21.28,177.0,24.87,12.73,47.59359,-54.27349
2020-11-02 19:54:01+00:00,170.0,19.83,161.0,23.95,12.73,47.59359,-54.27349
2020-11-02 20:04:01+00:00,172.0,22.27,176.0,27.6,12.73,47.59359,-54.27349
2020-11-02 20:14:01+00:00,173.0,20.67,178.0,24.28,12.65,47.59359,-54.27349
2020-11-02 20:24:01+00:00,168.0,23.17,173.0,30.41,12.65,47.59359,-54.27349
2020-11-02 20:34:01+00:00,168.0,22.28,164.0,27.51,12.65,47.59359,-54.27349
2020-11-02 20:44:01+00:00,172.0,23.69,171.0,29.02,12.65,47.59359,-54.27349
2020-11-02 20:54:01+00:00,176.0,22.24,178.0,28.2,12.65,47.59359,-54.27349
2020-11-02 21:04:01+00:00,177.0,23.22,182.0,28.81,12.65,47.59359,-54.27349
2020-11-02 21:14:01+00:00,180.0,24.6,185.0,30.08,12.57,47.59359,-54.27349
2020-11-02 21:24:01+00:00,179.0,23.18,176.0,28.03,12.57,47.59359,-54.27349
2020-11-02 21:34:01+00:00,178.0,24.28,176.0,31.6,12.57,47.59359,-54.27349
2020-11-02 21:44:01+00:00,180.0,24.59,184.0,29.19,12.57,47.59359,-54.27349
2020-11-02 21:54:01+00:00,182.0,25.58,181.0,29.77,12.57,47.59359,-54.27349
2020-11-02 22:04:01+00:00,182.0,23.48,180.0,28.87,12.57,47.59359,-54.27349
2020-11-02 22:14:01+00:00,180.0,24.56,186.0,34.23,12.57,47.59359,-54.27349
2020-11-02 22:24:01+00:00,181.0,22.98,178.0,27.1,12.57,47.59359,-54.27349
2020-11-02 22:34:01+00:00,181.0,21.89,196.0,25.59,12.57,47.59359,-54.27349
2020-11-02 22:44:01+00:00,187.0,22.53,188.0,27.97,12.57,47.59359,-54.27349
2020-11-02 22:54:01+00:00,187.0,22.33,192.0,27.4,12.57,47.59359,-54.27349
2020-11-02 23:04:01+00:00,186.0,24.94,180.0,30.62,12.57,47.59359,-54.27349
2020-11-02 23:14:01+00:00,191.0,23.58,200.0,30.07,12.49,47.59359,-54.27349
2020-11-02 23:24:01+00:00,191.0,22.73,193.0,27.16,12.49,47.59359,-54.27349
2020-11-02 23:34:01+00:00,223.0,20.26,226.0,23.5,12.49,47.59359,-54.27349
2020-11-02 23:44:01+00:00,209.0,18.26,208.0,20.89,12.49,47.59359,-54.27349
2020-11-02 23:54:01+00:00,215.0,17.57,209.0,21.0,12.49,47.59359,-54.27349
